This is the latest recevied weather packets stored in our database for station/object G4GVZ-1. If no packets are shown the sender has not sent any weather packets the latest 10 day(s).
| Time | Temp. | Humidity | Pressure | Rain* | Wind** | Luminosity | Snow |
|---|---|---|---|---|---|---|---|
| 1777339851 | 10° C | 80% | 1024.6 hPa | 0 mm | - | - | - |
| 1777338951 | 10.56° C | 82% | 1024.4 hPa | 0 mm | - | - | - |
| 1777338051 | 10.56° C | 82% | 1024.3 hPa | 0 mm | - | - | - |
| 1777337151 | 10.56° C | 82% | 1024.2 hPa | 0 mm | - | - | - |
| 1777336250 | 10.56° C | 82% | 1024.3 hPa | 0 mm | - | - | - |
| 1777335351 | 11.11° C | 82% | 1024.3 hPa | 0 mm | - | - | - |
| 1777334451 | 11.11° C | 82% | 1024.3 hPa | 0 mm | - | - | - |
| 1777333551 | 11.11° C | 82% | 1024.3 hPa | 0 mm | - | - | - |
| 1777332651 | 11.67° C | 81% | 1024.3 hPa | 0 mm | - | - | - |
| 1777331750 | 11.67° C | 81% | 1024.3 hPa | 0 mm | - | - | - |
| 1777330850 | 11.67° C | 82% | 1024.2 hPa | 0 mm | - | - | - |
| 1777329951 | 11.67° C | 84% | 1024.1 hPa | 0 mm | - | - | - |
| 1777329050 | 11.67° C | 84% | 1024.2 hPa | 0 mm | - | - | - |
| 1777328150 | 11.67° C | 83% | 1024.2 hPa | 0 mm | - | - | - |
| 1777327250 | 12.22° C | 82% | 1024.3 hPa | 0 mm | - | - | - |
| 1777326349 | 12.78° C | 81% | 1024.3 hPa | 0 mm | - | - | - |
| 1777325449 | 12.78° C | 80% | 1024 hPa | 0 mm | - | - | - |
| 1777324551 | 12.78° C | 79% | 1024.1 hPa | 0 mm | - | - | - |
| 1777323651 | 13.33° C | 78% | 1024 hPa | 0 mm | - | - | - |
| 1777322750 | 13.33° C | 75% | 1024 hPa | 0 mm | - | - | - |
| 1777321850 | 13.89° C | 74% | 1023.9 hPa | 0 mm | - | - | - |
| 1777320951 | 13.89° C | 72% | 1023.8 hPa | 0 mm | - | - | - |
| 1777320051 | 14.44° C | 70% | 1023.7 hPa | 0 mm | - | - | - |
| 1777319151 | 15° C | 67% | 1023.5 hPa | 0 mm | - | - | - |
| 1777318251 | 15° C | 64% | 1023.2 hPa | 0 mm | - | - | - |
* Rain latest hour (hover to see other rain measurements)
** Current wind speed in m/s (hover to see current wind gust speed)